Time,TemperatureF,DewpointF,PressureIn,WindDirection,WindDirectionDegrees,WindSpeedMPH,WindSpeedGustMPH,Humidity,HourlyPrecipIn,Conditions,Clouds,dailyrainin,SoftwareType,DateUTC
2013-09-22 00:00:00,60.9,60.9,29.79,NW,313,0.0,0.0,100,0.00,,,0.96,Wunderground v.1.13,2013-09-22 04:00:00,
2013-09-22 00:10:00,60.8,60.8,29.80,NW,313,0.0,0.0,100,0.00,,,0.96,Wunderground v.1.13,2013-09-22 04:10:00,
2013-09-22 00:20:00,60.8,60.8,29.80,NW,313,0.0,0.0,100,0.00,,,0.96,Wunderground v.1.13,2013-09-22 04:20:00,
2013-09-22 00:30:00,60.6,60.6,29.80,NW,313,0.0,0.0,100,0.00,,,0.00,Wunderground v.1.13,2013-09-22 04:30:00,
2013-09-22 00:40:00,60.6,60.6,29.80,NW,313,0.0,0.0,100,0.00,,,0.00,Wunderground v.1.13,2013-09-22 04:40:00,
2013-09-22 00:50:00,60.3,60.3,29.80,NW,313,0.0,0.0,100,0.00,,,0.00,Wunderground v.1.13,2013-09-22 04:50:00,
2013-09-22 01:00:00,60.0,60.0,29.80,NW,313,0.0,0.0,100,0.00,,,0.00,Wunderground v.1.13,2013-09-22 05:00:00,
2013-09-22 01:10:00,60.0,60.0,29.80,NW,313,0.0,0.0,100,0.00,,,0.00,Wunderground v.1.13,2013-09-22 05:10:00,
2013-09-22 01:20:00,60.1,60.1,29.80,NW,313,0.0,0.0,100,0.00,,,0.00,Wunderground v.1.13,2013-09-22 05:20:00,
2013-09-22 01:30:00,60.3,60.3,29.80,NW,313,0.0,0.0,100,0.00,,,0.00,Wunderground v.1.13,2013-09-22 05:30:00,
2013-09-22 01:40:00,60.3,60.3,29.80,NW,313,0.0,0.0,100,0.00,,,0.00,Wunderground v.1.13,2013-09-22 05:40:00,
2013-09-22 01:50:00,60.3,60.3,29.80,NW,313,0.0,0.0,100,0.00,,,0.00,Wunderground v.1.13,2013-09-22 05:50:00,
2013-09-22 02:00:00,60.1,60.1,29.80,NW,313,0.0,0.0,100,0.00,,,0.00,Wunderground v.1.13,2013-09-22 06:00:00,
2013-09-22 02:10:00,60.0,60.0,29.81,NW,313,0.0,0.0,100,0.00,,,0.00,Wunderground v.1.13,2013-09-22 06:10:00,
2013-09-22 02:20:00,59.7,59.7,29.81,NW,313,0.0,0.0,100,0.00,,,0.00,Wunderground v.1.13,2013-09-22 06:20:00,
2013-09-22 02:30:00,59.5,59.5,29.81,NW,313,0.0,0.0,100,0.00,,,0.00,Wunderground v.1.13,2013-09-22 06:30:00,
2013-09-22 02:40:00,59.4,59.4,29.80,NW,313,0.0,0.0,100,0.00,,,0.00,Wunderground v.1.13,2013-09-22 06:40:00,
2013-09-22 02:50:00,59.2,59.2,29.80,NW,313,0.0,0.0,100,0.00,,,0.00,Wunderground v.1.13,2013-09-22 06:50:00,
2013-09-22 03:00:00,59.2,59.2,29.81,NW,313,0.0,0.0,100,0.00,,,0.00,Wunderground v.1.13,2013-09-22 07:00:00,
2013-09-22 03:10:00,58.9,58.9,29.80,NW,313,0.0,0.0,100,0.00,,,0.00,Wunderground v.1.13,2013-09-22 07:10:00,
2013-09-22 03:20:00,58.6,58.6,29.80,NW,313,0.0,0.0,100,0.00,,,0.00,Wunderground v.1.13,2013-09-22 07:20:00,
2013-09-22 03:30:00,58.6,58.6,29.80,NW,313,0.0,0.0,100,0.00,,,0.00,Wunderground v.1.13,2013-09-22 07:30:00,
2013-09-22 03:40:00,58.5,58.5,29.80,NW,313,0.0,0.0,100,0.00,,,0.00,Wunderground v.1.13,2013-09-22 07:40:00,
2013-09-22 03:50:00,58.3,58.3,29.80,NW,313,0.0,0.0,100,0.00,,,0.00,Wunderground v.1.13,2013-09-22 07:50:00,
2013-09-22 04:00:00,58.2,58.2,29.81,NW,313,0.0,0.0,100,0.00,,,0.00,Wunderground v.1.13,2013-09-22 08:00:00,
2013-09-22 04:20:00,58.2,58.2,29.81,NW,313,0.0,0.0,100,0.00,,,0.00,Wunderground v.1.13,2013-09-22 08:20:00,
2013-09-22 04:30:00,58.0,58.0,29.81,NW,313,0.0,0.0,100,0.00,,,0.00,Wunderground v.1.13,2013-09-22 08:30:00,
2013-09-22 04:40:00,58.0,58.0,29.81,NW,313,0.0,0.0,100,0.00,,,0.00,Wunderground v.1.13,2013-09-22 08:40:00,
2013-09-22 04:50:00,58.0,58.0,29.81,NW,313,0.0,0.0,100,0.00,,,0.00,Wunderground v.1.13,2013-09-22 08:50:00,
2013-09-22 05:00:00,58.0,58.0,29.81,NW,313,0.0,0.0,100,0.00,,,0.00,Wunderground v.1.13,2013-09-22 09:00:00,
2013-09-22 05:10:00,58.0,58.0,29.81,NW,313,0.0,0.0,100,0.00,,,0.00,Wunderground v.1.13,2013-09-22 09:10:00,
2013-09-22 05:20:00,58.0,58.0,29.81,NW,313,0.0,0.0,100,0.00,,,0.00,Wunderground v.1.13,2013-09-22 09:20:00,
2013-09-22 05:30:00,57.9,57.9,29.81,NW,313,0.0,0.0,100,0.00,,,0.00,Wunderground v.1.13,2013-09-22 09:30:00,
2013-09-22 05:40:00,57.9,57.9,29.82,NW,313,0.0,0.0,100,0.00,,,0.00,Wunderground v.1.13,2013-09-22 09:40:00,
2013-09-22 05:50:00,57.9,57.9,29.82,NW,313,0.0,0.0,100,0.00,,,0.00,Wunderground v.1.13,2013-09-22 09:50:00,
2013-09-22 06:00:00,57.7,57.7,29.82,NW,313,0.0,0.0,100,0.00,,,0.00,Wunderground v.1.13,2013-09-22 10:00:00,
2013-09-22 06:10:00,57.7,57.7,29.82,NW,313,0.0,0.0,100,0.00,,,0.00,Wunderground v.1.13,2013-09-22 10:10:00,
2013-09-22 06:20:00,57.7,57.7,29.82,NW,313,0.0,0.0,100,0.00,,,0.00,Wunderground v.1.13,2013-09-22 10:20:00,
2013-09-22 06:30:00,57.7,57.7,29.82,NW,313,0.0,0.0,100,0.00,,,0.00,Wunderground v.1.13,2013-09-22 10:30:00,
2013-09-22 06:40:00,57.7,57.7,29.82,NW,313,0.0,0.0,100,0.00,,,0.00,Wunderground v.1.13,2013-09-22 10:40:00,
2013-09-22 06:50:00,57.7,57.7,29.82,NW,313,0.0,0.0,100,0.00,,,0.00,Wunderground v.1.13,2013-09-22 10:50:00,
2013-09-22 07:00:00,57.4,57.4,29.82,NW,313,0.0,0.0,100,0.00,,,0.00,Wunderground v.1.13,2013-09-22 11:00:00,
2013-09-22 07:10:00,57.2,57.2,29.83,NW,313,0.0,0.0,100,0.00,,,0.00,Wunderground v.1.13,2013-09-22 11:10:00,
2013-09-22 07:20:00,56.9,56.9,29.83,NW,313,0.0,0.0,100,0.00,,,0.00,Wunderground v.1.13,2013-09-22 11:20:00,
2013-09-22 07:30:00,56.9,56.9,29.83,NW,313,0.0,0.0,100,0.00,,,0.00,Wunderground v.1.13,2013-09-22 11:30:00,
2013-09-22 07:40:00,56.8,56.8,29.84,NW,313,0.0,0.0,100,0.00,,,0.00,Wunderground v.1.13,2013-09-22 11:40:00,
2013-09-22 07:50:00,56.5,56.5,29.84,NW,313,0.0,0.0,100,0.00,,,0.00,Wunderground v.1.13,2013-09-22 11:50:00,
2013-09-22 08:00:00,56.4,56.4,29.85,NW,313,0.0,0.0,100,0.00,,,0.00,Wunderground v.1.13,2013-09-22 12:00:00,
2013-09-22 08:10:00,56.2,56.2,29.85,NW,313,0.0,0.0,100,0.00,,,0.00,Wunderground v.1.13,2013-09-22 12:10:00,
2013-09-22 08:20:00,56.4,56.4,29.85,NW,313,0.0,0.0,100,0.00,,,0.00,Wunderground v.1.13,2013-09-22 12:20:00,
2013-09-22 08:30:00,56.6,56.6,29.85,NW,313,0.0,0.0,100,0.00,,,0.00,Wunderground v.1.13,2013-09-22 12:30:00,
2013-09-22 08:40:00,56.8,56.8,29.85,NW,313,0.0,0.0,100,0.00,,,0.00,Wunderground v.1.13,2013-09-22 12:40:00,
2013-09-22 08:50:00,57.1,57.1,29.85,NW,313,0.0,0.0,100,0.00,,,0.00,Wunderground v.1.13,2013-09-22 12:50:00,
2013-09-22 09:00:00,57.4,57.4,29.85,NW,313,0.0,0.0,100,0.00,,,0.00,Wunderground v.1.13,2013-09-22 13:00:00,
2013-09-22 09:10:00,58.0,58.0,29.86,NW,313,0.0,0.0,100,0.00,,,0.00,Wunderground v.1.13,2013-09-22 13:10:00,
2013-09-22 09:20:00,58.5,58.5,29.86,NW,313,0.0,0.0,100,0.00,,,0.00,Wunderground v.1.13,2013-09-22 13:20:00,
2013-09-22 09:30:00,59.1,59.1,29.86,NW,313,0.0,0.0,100,0.00,,,0.00,Wunderground v.1.13,2013-09-22 13:30:00,
2013-09-22 09:40:00,59.4,59.4,29.87,NW,313,0.0,0.0,100,0.00,,,0.00,Wunderground v.1.13,2013-09-22 13:40:00,
2013-09-22 09:50:00,59.5,59.5,29.87,NW,313,0.0,0.0,100,0.00,,,0.00,Wunderground v.1.13,2013-09-22 13:50:00,
2013-09-22 10:00:00,59.8,59.8,29.86,South,176,0.0,0.0,100,0.00,,,0.00,Wunderground v.1.13,2013-09-22 14:00:00,
2013-09-22 10:10:00,60.3,60.3,29.87,South,176,0.0,0.0,100,0.00,,,0.00,Wunderground v.1.13,2013-09-22 14:10:00,
2013-09-22 10:20:00,60.9,60.9,29.87,South,176,0.0,0.0,100,0.00,,,0.00,Wunderground v.1.13,2013-09-22 14:20:00,
2013-09-22 10:30:00,61.5,61.5,29.87,South,176,0.0,0.0,100,0.00,,,0.00,Wunderground v.1.13,2013-09-22 14:30:00,
2013-09-22 10:40:00,62.0,61.4,29.88,South,176,0.0,0.0,98,0.00,,,0.00,Wunderground v.1.13,2013-09-22 14:40:00,
2013-09-22 10:50:00,62.6,61.4,29.88,South,176,0.0,1.0,96,0.00,,,0.00,Wunderground v.1.13,2013-09-22 14:50:00,
2013-09-22 11:00:00,63.4,59.5,29.87,SE,139,0.0,0.0,87,0.00,,,0.00,Wunderground v.1.13,2013-09-22 15:00:00,
2013-09-22 11:10:00,64.7,60.7,29.87,SE,140,0.0,0.0,87,0.00,,,0.00,Wunderground v.1.13,2013-09-22 15:10:00,
2013-09-22 11:20:00,65.4,58.0,29.87,SE,143,0.0,0.0,77,0.00,,,0.00,Wunderground v.1.13,2013-09-22 15:20:00,
2013-09-22 11:30:00,65.9,59.2,29.87,SE,143,0.0,0.0,79,0.00,,,0.00,Wunderground v.1.13,2013-09-22 15:30:00,
2013-09-22 11:40:00,66.3,57.8,29.87,East,86,0.0,0.0,74,0.00,,,0.00,Wunderground v.1.13,2013-09-22 15:40:00,
2013-09-22 11:50:00,67.5,58.5,29.87,East,86,0.0,0.0,73,0.00,,,0.00,Wunderground v.1.13,2013-09-22 15:50:00,
2013-09-22 12:00:00,67.7,56.8,29.87,SSE,158,0.0,0.0,68,0.00,,,0.00,Wunderground v.1.13,2013-09-22 16:00:00,
2013-09-22 12:10:00,68.2,58.0,29.87,SSE,153,0.0,0.0,70,0.00,,,0.00,Wunderground v.1.13,2013-09-22 16:10:00,
2013-09-22 12:20:00,68.2,55.6,29.87,SSE,150,0.0,0.0,64,0.00,,,0.00,Wunderground v.1.13,2013-09-22 16:20:00,
2013-09-22 12:30:00,68.7,57.3,29.87,South,190,0.0,0.0,67,0.00,,,0.00,Wunderground v.1.13,2013-09-22 16:30:00,
2013-09-22 12:40:00,69.5,58.1,29.87,SE,140,0.0,2.0,67,0.00,,,0.00,Wunderground v.1.13,2013-09-22 16:40:00,
2013-09-22 12:50:00,69.8,55.7,29.87,SSE,152,0.0,0.0,61,0.00,,,0.00,Wunderground v.1.13,2013-09-22 16:50:00,
2013-09-22 13:00:00,70.0,54.5,29.87,SSE,152,0.0,0.0,58,0.00,,,0.00,Wunderground v.1.13,2013-09-22 17:00:00,
2013-09-22 13:10:00,70.0,55.0,29.87,SSE,152,0.0,0.0,59,0.00,,,0.00,Wunderground v.1.13,2013-09-22 17:10:00,
2013-09-22 13:20:00,70.5,54.5,29.87,SSE,152,0.0,0.0,57,0.00,,,0.00,Wunderground v.1.13,2013-09-22 17:20:00,
2013-09-22 13:30:00,70.3,55.3,29.87,SSE,153,0.0,0.0,59,0.00,,,0.00,Wunderground v.1.13,2013-09-22 17:30:00,
2013-09-22 13:40:00,70.5,55.5,29.86,SE,142,0.0,1.0,59,0.00,,,0.00,Wunderground v.1.13,2013-09-22 17:40:00,
2013-09-22 13:50:00,70.2,54.2,29.86,SSE,156,0.0,0.0,57,0.00,,,0.00,Wunderground v.1.13,2013-09-22 17:50:00,
2013-09-22 14:00:00,70.2,54.7,29.86,SE,141,0.0,0.0,58,0.00,,,0.00,Wunderground v.1.13,2013-09-22 18:00:00,
2013-09-22 14:10:00,70.8,54.3,29.86,NE,46,0.0,0.0,56,0.00,,,0.00,Wunderground v.1.13,2013-09-22 18:10:00,
2013-09-22 14:20:00,70.8,55.3,29.86,East,100,0.0,0.0,58,0.00,,,0.00,Wunderground v.1.13,2013-09-22 18:20:00,
2013-09-22 14:30:00,71.0,56.4,29.85,East,100,0.0,0.0,60,0.00,,,0.00,Wunderground v.1.13,2013-09-22 18:30:00,
2013-09-22 14:40:00,70.3,56.2,29.85,ESE,113,0.0,0.0,61,0.00,,,0.00,Wunderground v.1.13,2013-09-22 18:40:00,
2013-09-22 14:50:00,71.0,55.5,29.85,ESE,113,0.0,0.0,58,0.00,,,0.00,Wunderground v.1.13,2013-09-22 18:50:00,
2013-09-22 15:00:00,72.2,56.1,29.84,ESE,113,0.0,0.0,57,0.00,,,0.00,Wunderground v.1.13,2013-09-22 19:00:00,
2013-09-22 15:10:00,72.2,53.6,29.84,ESE,113,0.0,0.0,52,0.00,,,0.00,Wunderground v.1.13,2013-09-22 19:10:00,
2013-09-22 15:20:00,71.9,53.8,29.84,East,97,0.0,0.0,53,0.00,,,0.00,Wunderground v.1.13,2013-09-22 19:20:00,
2013-09-22 15:30:00,72.6,53.4,29.84,East,97,0.0,0.0,51,0.00,,,0.00,Wunderground v.1.13,2013-09-22 19:30:00,
2013-09-22 15:40:00,73.2,56.6,29.84,East,97,0.0,0.0,56,0.00,,,0.00,Wunderground v.1.13,2013-09-22 19:40:00,
2013-09-22 15:50:00,73.9,55.7,29.84,SE,126,0.0,0.0,53,0.00,,,0.00,Wunderground v.1.13,2013-09-22 19:50:00,
2013-09-22 16:00:00,73.9,53.5,29.84,SE,132,0.0,1.0,49,0.00,,,0.00,Wunderground v.1.13,2013-09-22 20:00:00,
2013-09-22 16:10:00,74.1,54.8,29.84,SE,132,0.0,0.0,51,0.00,,,0.00,Wunderground v.1.13,2013-09-22 20:10:00,
2013-09-22 16:20:00,75.5,54.4,29.84,SE,132,0.0,0.0,48,0.00,,,0.00,Wunderground v.1.13,2013-09-22 20:20:00,
2013-09-22 16:30:00,76.0,54.9,29.83,SE,132,0.0,0.0,48,0.00,,,0.00,Wunderground v.1.13,2013-09-22 20:30:00,
2013-09-22 16:40:00,75.3,55.4,29.84,SE,132,0.0,0.0,50,0.00,,,0.00,Wunderground v.1.13,2013-09-22 20:40:00,
2013-09-22 16:50:00,75.5,52.7,29.84,SE,132,0.0,0.0,45,0.00,,,0.00,Wunderground v.1.13,2013-09-22 20:50:00,
2013-09-22 17:00:00,75.7,55.2,29.83,SE,132,0.0,0.0,49,0.00,,,0.00,Wunderground v.1.13,2013-09-22 21:00:00,
2013-09-22 17:10:00,75.9,55.9,29.82,SE,132,0.0,0.0,50,0.00,,,0.00,Wunderground v.1.13,2013-09-22 21:10:00,
2013-09-22 17:20:00,74.6,54.7,29.82,SE,132,0.0,0.0,50,0.00,,,0.00,Wunderground v.1.13,2013-09-22 21:20:00,
2013-09-22 17:30:00,73.4,55.2,29.83,SE,132,0.0,0.0,53,0.00,,,0.00,Wunderground v.1.13,2013-09-22 21:30:00,
2013-09-22 17:40:00,73.6,58.4,29.83,SE,132,0.0,0.0,59,0.00,,,0.00,Wunderground v.1.13,2013-09-22 21:40:00,
2013-09-22 17:50:00,73.9,58.7,29.83,SE,132,0.0,0.0,59,0.00,,,0.00,Wunderground v.1.13,2013-09-22 21:50:00,
2013-09-22 18:00:00,74.3,57.6,29.83,SE,132,0.0,0.0,56,0.00,,,0.00,Wunderground v.1.13,2013-09-22 22:00:00,
2013-09-22 18:10:00,74.5,60.2,29.83,SE,132,0.0,0.0,61,0.00,,,0.00,Wunderground v.1.13,2013-09-22 22:10:00,
2013-09-22 18:20:00,74.8,59.5,29.83,SE,132,0.0,0.0,59,0.00,,,0.00,Wunderground v.1.13,2013-09-22 22:20:00,
2013-09-22 18:30:00,74.8,59.5,29.84,SE,132,0.0,0.0,59,0.00,,,0.00,Wunderground v.1.13,2013-09-22 22:30:00,
2013-09-22 18:40:00,73.1,58.8,29.84,SE,132,0.0,0.0,61,0.00,,,0.00,Wunderground v.1.13,2013-09-22 22:40:00,
2013-09-22 18:50:00,71.2,58.8,29.84,SE,132,0.0,0.0,65,0.00,,,0.00,Wunderground v.1.13,2013-09-22 22:50:00,
2013-09-22 19:00:00,70.2,58.3,29.84,SE,132,0.0,0.0,66,0.00,,,0.00,Wunderground v.1.13,2013-09-22 23:00:00,
2013-09-22 19:10:00,69.0,58.4,29.84,SE,132,0.0,0.0,69,0.00,,,0.00,Wunderground v.1.13,2013-09-22 23:10:00,
2013-09-22 19:20:00,67.8,58.8,29.84,SE,132,0.0,0.0,73,0.00,,,0.00,Wunderground v.1.13,2013-09-22 23:20:00,
2013-09-22 19:30:00,67.0,59.2,29.84,SE,132,0.0,0.0,76,0.00,,,0.00,Wunderground v.1.13,2013-09-22 23:30:00,
2013-09-22 19:40:00,66.0,58.2,29.85,SE,132,0.0,0.0,76,0.00,,,0.00,Wunderground v.1.13,2013-09-22 23:40:00,
2013-09-22 19:50:00,65.1,58.4,29.85,SE,132,0.0,0.0,79,0.00,,,0.00,Wunderground v.1.13,2013-09-22 23:50:00,
2013-09-22 20:00:00,64.2,57.5,29.85,SE,132,0.0,0.0,79,0.00,,,0.00,Wunderground v.1.13,2013-09-23 00:00:00,
2013-09-22 20:10:00,63.6,57.7,29.86,SE,132,0.0,0.0,81,0.00,,,0.00,Wunderground v.1.13,2013-09-23 00:10:00,
2013-09-22 20:20:00,63.1,58.2,29.86,SE,132,0.0,0.0,84,0.00,,,0.00,Wunderground v.1.13,2013-09-23 00:20:00,
2013-09-22 20:30:00,62.8,58.2,29.87,SE,132,0.0,0.0,85,0.00,,,0.00,Wunderground v.1.13,2013-09-23 00:30:00,
2013-09-22 20:40:00,62.2,58.6,29.88,SE,132,0.0,0.0,88,0.00,,,0.00,Wunderground v.1.13,2013-09-23 00:40:00,
2013-09-22 20:50:00,61.5,58.5,29.88,SE,132,0.0,0.0,90,0.00,,,0.00,Wunderground v.1.13,2013-09-23 00:50:00,
2013-09-22 21:00:00,61.2,58.9,29.88,SE,132,0.0,0.0,92,0.00,,,0.00,Wunderground v.1.13,2013-09-23 01:00:00,
2013-09-22 21:10:00,61.2,59.2,29.88,SE,132,0.0,0.0,93,0.00,,,0.00,Wunderground v.1.13,2013-09-23 01:10:00,
2013-09-22 21:20:00,61.1,59.1,29.88,SE,132,0.0,0.0,93,0.00,,,0.00,Wunderground v.1.13,2013-09-23 01:20:00,
2013-09-22 21:30:00,60.9,58.9,29.89,SE,132,0.0,0.0,93,0.00,,,0.00,Wunderground v.1.13,2013-09-23 01:30:00,
2013-09-22 21:40:00,60.4,58.4,29.89,SE,132,0.0,0.0,93,0.00,,,0.00,Wunderground v.1.13,2013-09-23 01:40:00,
2013-09-22 21:50:00,60.1,57.5,29.89,SE,132,0.0,0.0,91,0.00,,,0.00,Wunderground v.1.13,2013-09-23 01:50:00,
2013-09-22 22:00:00,60.0,57.7,29.89,SE,132,0.0,0.0,92,0.00,,,0.00,Wunderground v.1.13,2013-09-23 02:00:00,
2013-09-22 22:10:00,59.8,57.5,29.89,SE,132,0.0,0.0,92,0.00,,,0.00,Wunderground v.1.13,2013-09-23 02:10:00,
2013-09-22 22:20:00,59.7,57.4,29.89,SE,132,0.0,0.0,92,0.00,,,0.00,Wunderground v.1.13,2013-09-23 02:20:00,
2013-09-22 22:30:00,59.5,57.5,29.90,SE,132,0.0,0.0,93,0.00,,,0.00,Wunderground v.1.13,2013-09-23 02:30:00,
2013-09-22 22:40:00,59.4,57.4,29.89,SE,132,0.0,0.0,93,0.00,,,0.00,Wunderground v.1.13,2013-09-23 02:40:00,
2013-09-22 22:50:00,59.1,57.1,29.89,SE,132,0.0,0.0,93,0.00,,,0.00,Wunderground v.1.13,2013-09-23 02:50:00,
2013-09-22 23:00:00,58.8,57.1,29.90,SE,132,0.0,0.0,94,0.00,,,0.00,Wunderground v.1.13,2013-09-23 03:00:00,
2013-09-22 23:10:00,58.5,56.8,29.90,SE,132,0.0,0.0,94,0.00,,,0.00,Wunderground v.1.13,2013-09-23 03:10:00,
2013-09-22 23:20:00,58.3,56.6,29.90,SE,132,0.0,0.0,94,0.00,,,0.00,Wunderground v.1.13,2013-09-23 03:20:00,
2013-09-22 23:30:00,58.2,56.8,29.90,SE,132,0.0,0.0,95,0.00,,,0.00,Wunderground v.1.13,2013-09-23 03:30:00,
2013-09-22 23:40:00,58.2,56.8,29.90,SE,132,0.0,0.0,95,0.00,,,0.00,Wunderground v.1.13,2013-09-23 03:40:00,
2013-09-22 23:50:00,58.2,57.1,29.90,SE,132,0.0,0.0,96,0.00,,,0.00,Wunderground v.1.13,2013-09-23 03:50:00,